EHI
4 7 8 6 2 3 9 19 30 40 46 47 44 37 30 22 15 12 9 5 2 0 0 0 0 0 0 0 1 1 1 2 3 3 3 2 1 0 0 0 0 2 5
9 11 11 7 5 6 12 21 31 40 45 46 43 41 37 30 22 17 12 7 3 1 0 0 0 0 0 1 2 2 2 1 2 3 2 1 0 0 0 0 0 1 3
12 14 12 10 8 9 14 23 31 38 43 44 44 44 43 38 30 22 16 11 7 3 1 0 0 0 0 1 2 2 1 0 1 2 1 0 0 0 0 0 0 0 1
11 13 16 15 12 10 15 23 29 34 38 42 44 45 44 40 33 24 17 14 12 7 2 0 0 0 0 0 1 1 0 0 0 0 0 0 0 0 0 0 0 0 0
8 14 22 21 15 12 16 23 26 28 33 38 41 42 42 38 32 23 17 14 13 8 3 1 1 0 0 0 0 0 0 0 0 0 0 0 1 1 1 0 0 0 0
8 16 26 26 19 15 17 21 23 25 29 34 37 37 35 32 30 24 16 12 11 7 2 1 2 1 0 0 0 0 0 0 0 0 0 0 2 3 2 0 0 0 0
11 17 27 28 22 19 18 19 21 24 28 31 31 30 28 27 26 21 14 9 8 6 3 1 1 1 0 0 0 0 0 0 0 0 0 0 2 5 2 0 1 0 0
15 19 25 26 22 21 19 19 22 25 26 25 23 22 21 20 19 15 11 8 7 6 4 1 1 0 0 1 0 0 0 0 0 0 0 1 4 6 3 0 1 1 0
15 17 19 19 20 20 20 20 21 22 22 19 16 14 13 12 10 9 8 7 7 6 5 3 1 1 1 1 0 0 1 1 1 0 0 3 7 6 1 0 0 1 1
17 16 15 15 17 19 18 18 18 18 16 14 11 9 7 5 4 4 5 6 5 4 4 3 3 2 1 0 0 0 1 2 2 2 2 6 9 5 1 0 0 1 1
26 23 19 18 17 16 15 16 17 16 13 11 10 8 5 4 4 3 4 7 6 4 3 3 3 2 1 0 0 1 1 2 3 3 5 9 9 4 1 1 0 1 1
32 28 24 22 19 15 14 16 16 14 14 13 10 9 8 7 5 4 7 10 8 4 3 3 2 1 1 1 1 1 1 1 3 3 7 12 9 2 1 2 2 2 1
29 26 23 22 20 16 16 17 15 15 16 17 14 14 15 13 8 7 10 12 9 7 6 5 3 2 1 2 2 2 1 1 2 2 8 14 8 1 1 2 4 4 4
27 25 22 21 19 17 16 15 15 16 18 20 21 22 22 18 11 9 12 13 11 11 11 9 6 4 2 2 1 1 1 1 1 2 8 13 9 2 1 3 6 6 6
28 26 24 22 22 22 21 18 16 15 15 19 23 24 22 19 13 11 13 13 9 9 11 10 8 6 6 4 2 1 0 0 1 2 6 10 8 4 2 3 6 7 7
28 28 26 25 26 28 27 23 19 14 12 14 18 18 16 15 14 13 11 8 6 6 7 6 5 7 8 9 6 2 0 0 0 1 3 5 5 3 2 3 5 6 6
27 27 26 25 26 29 27 23 18 13 11 12 14 13 11 12 13 11 8 6 6 6 7 6 4 6 9 10 8 4 1 1 0 0 1 2 1 1 2 4 5 5 5
24 26 25 21 23 26 25 21 17 14 14 16 16 13 9 8 9 8 8 8 9 11 11 9 7 8 10 10 8 5 3 1 0 0 0 0 0 1 3 5 4 4 4
20 23 24 22 23 26 28 27 25 23 21 20 19 16 12 9 8 8 9 10 13 16 15 13 11 12 12 9 5 3 2 1 0 0 0 0 0 1 3 4 3 2 2
19 22 24 26 27 28 31 34 35 32 26 21 19 17 15 13 12 12 13 13 17 19 18 15 14 14 14 10 4 2 1 0 0 0 0 0 0 1 2 3 3 2 1
22 23 25 26 28 29 32 35 36 31 23 18 17 16 15 14 15 14 14 14 17 19 17 13 11 11 12 11 6 2 0 0 0 0 0 0 0 0 1 2 3 3 2
27 27 27 27 28 29 31 32 31 26 19 15 15 15 12 10 10 9 10 11 13 14 12 9 6 6 8 10 7 3 1 0 0 0 0 0 0 0 0 0 1 1 2
32 32 31 31 31 31 31 29 26 23 19 15 14 13 9 5 4 5 6 8 9 9 7 6 4 4 6 7 7 4 2 0 0 0 0 0 0 0 0 0 0 0 1
32 32 33 34 34 32 29 26 25 24 21 17 14 11 7 4 3 3 5 6 7 6 5 3 3 4 5 6 6 4 1 0 0 0 0 0 0 0 1 0 0 0 1
28 28 29 31 32 30 28 26 24 24 22 16 12 9 7 5 4 3 3 4 5 5 4 3 3 4 5 5 4 3 1 0 0 0 0 0 0 0 0 0 0 0 1
27 24 25 28 29 28 26 25 24 24 21 15 10 8 7 6 4 2 2 3 4 4 4 3 3 4 5 5 4 2 1 0 0 0 0 0 0 0 0 0 0 0 0
Wind_Speed
13 16 17 14 12 11 11 11 12 13 13 14 14 14 14 13 12 12 11 10 9 8 7 7 6 6 5 5 5 5 5 6 6 6 6 7 6 6 6 7 7 7 11
15 17 18 14 13 12 11 11 11 12 13 13 13 13 13 12 12 11 10 9 9 8 7 6 6 5 5 4 4 4 5 5 5 6 6 8 7 6 6 5 3 6 10
16 17 18 15 14 13 12 11 11 12 12 12 12 12 12 12 11 10 10 9 8 8 7 6 5 5 4 4 4 4 4 5 5 5 7 7 8 8 6 5 3 6 8
16 17 16 16 14 13 12 11 11 11 12 11 11 11 11 11 10 10 9 9 8 7 6 6 6 5 4 4 4 4 4 5 5 6 8 4 5 9 7 6 6 6 7
16 15 16 16 14 13 12 12 11 11 11 11 11 11 10 10 10 9 9 8 7 7 6 6 5 5 5 5 4 4 5 5 6 9 6 3 2 9 8 8 7 8 8
15 15 17 16 14 13 12 12 11 11 11 10 10 10 9 9 9 8 8 8 7 7 6 6 5 5 5 5 5 5 5 5 9 9 5 5 4 8 7 8 9 9 9
13 13 17 15 14 13 12 12 11 11 10 10 10 9 9 8 8 8 8 7 7 7 6 6 5 6 6 5 6 6 6 7 10 7 5 6 3 8 7 9 10 10 10
12 12 15 15 13 13 12 11 11 10 10 9 8 8 8 7 7 7 7 7 7 7 7 7 6 6 6 6 7 7 7 9 11 8 7 6 4 6 8 9 10 11 11
11 11 12 13 13 13 12 11 10 9 9 8 8 7 7 7 7 7 7 7 7 7 7 7 7 8 7 7 7 8 8 10 12 7 8 5 6 7 9 11 11 11 12
9 9 10 11 11 11 12 12 10 9 8 8 7 7 7 8 8 8 9 8 7 7 8 7 8 8 8 8 8 9 9 10 13 10 7 4 7 7 10 11 12 13 13
8 8 8 9 9 9 9 10 11 10 8 8 8 9 9 8 8 8 7 5 6 7 7 7 7 8 8 10 10 9 10 9 10 7 6 3 5 8 10 11 12 14 14
9 8 7 7 8 8 6 7 7 7 8 8 6 7 7 5 4 4 3 5 6 7 8 8 8 9 10 7 8 9 7 9 8 6 4 5 6 9 10 11 13 14 15
8 7 6 5 5 5 4 5 4 3 4 6 6 5 4 4 3 4 3 5 6 8 7 7 8 7 6 4 5 5 6 6 5 5 4 6 6 9 11 11 12 14 14
8 7 6 6 5 5 4 3 4 3 3 4 4 5 4 3 3 4 3 3 3 3 4 4 4 5 5 6 7 7 7 6 6 5 3 4 6 8 10 11 12 13 13
7 6 5 5 5 4 4 4 3 3 3 3 3 3 4 4 4 4 3 3 4 3 3 3 5 5 5 6 7 7 7 8 8 7 4 5 5 7 9 11 12 12 13
5 5 4 5 4 4 4 4 3 3 3 4 3 3 4 3 3 3 4 3 3 3 3 4 5 5 5 5 7 7 8 8 7 7 7 5 7 7 7 8 10 12 12
5 4 4 4 4 4 4 4 3 3 3 2 2 2 3 3 3 3 3 3 2 3 3 4 5 4 5 6 7 7 7 8 7 7 8 6 5 7 7 7 7 8 10
4 4 3 3 3 3 3 3 3 2 2 2 2 2 3 3 3 3 3 3 2 3 3 3 4 4 5 5 5 5 6 5 7 7 7 6 5 5 5 5 6 7 8
4 3 3 2 2 3 3 3 2 2 2 2 2 2 2 3 3 3 2 2 3 3 3 4 3 4 5 5 6 5 5 5 5 6 5 5 4 5 5 4 6 7 8
3 3 2 3 2 3 3 2 2 2 2 2 1 1 2 2 3 3 2 2 3 3 3 3 4 4 5 4 6 6 5 5 5 4 5 5 4 5 5 5 5 6 8
3 3 3 2 2 2 2 2 2 2 1 1 1 1 2 2 2 3 2 2 3 2 3 4 4 5 4 3 5 5 5 6 5 4 5 4 4 5 5 5 5 5 4
4 4 4 3 3 3 2 1 1 1 1 1 1 0 1 2 2 2 2 2 2 3 3 4 4 5 4 3 4 5 4 4 4 4 4 4 4 4 5 5 5 5 5
4 4 3 3 3 2 2 1 1 1 1 1 0 0 0 1 1 1 2 2 2 3 2 3 4 5 4 3 3 4 4 4 3 2 3 3 3 4 5 5 6 5 5
4 4 4 3 3 2 2 2 2 1 1 1 1 0 0 0 1 1 2 2 3 3 3 4 3 4 5 4 2 3 4 4 4 4 3 2 3 5 5 5 5 5 5
3 4 4 4 3 3 2 3 2 1 0 1 0 1 1 1 1 1 2 2 3 3 3 4 3 4 4 4 4 3 4 4 5 5 5 4 4 4 3 5 4 4 4
3 3 3 4 3 3 2 2 2 1 1 1 0 0 1 1 1 1 2 3 4 3 3 4 4 4 4 4 4 4 4 4 4 5 6 6 5 4 4 4 4 4 4
Wind_Direction
156 146 150 158 154 149 144 143 147 151 152 152 154 157 158 159 159 158 156 156 153 150 144 140 134 130 127 128 129 130 130 131 134 138 141 143 146 148 149 153 181 156 124
149 146 151 157 155 152 147 143 143 147 149 150 154 156 159 160 161 162 161 161 159 157 152 149 144 140 139 140 142 143 142 143 149 153 161 165 160 158 159 172 246 105 138
147 146 155 158 158 155 151 146 143 143 146 149 152 156 158 160 162 163 164 165 165 163 160 157 154 153 151 153 154 156 157 161 168 174 204 199 158 165 176 178 168 130 151
149 150 156 155 160 158 154 149 145 145 148 149 151 155 158 161 163 166 167 168 169 170 170 168 166 168 168 169 171 175 179 184 190 207 219 202 167 155 181 186 181 176 171
152 153 146 157 161 160 157 155 153 152 152 153 154 156 159 162 164 168 171 172 175 178 180 180 179 180 183 187 190 193 200 204 206 232 235 214 187 145 184 193 192 190 187
155 153 147 162 163 162 161 160 159 158 158 159 160 162 164 166 170 175 178 179 183 187 191 191 192 193 194 200 205 210 213 217 227 226 221 227 205 152 194 205 201 199 197
154 151 148 161 163 165 165 165 165 165 165 166 167 168 170 172 176 182 184 188 191 194 199 201 205 209 210 215 219 225 229 231 249 239 225 227 199 149 201 215 211 207 205
154 152 146 160 166 168 169 169 169 170 171 172 174 176 179 181 185 190 195 199 202 206 212 216 219 220 221 224 228 231 237 248 243 242 236 235 149 169 211 219 218 214 210
159 156 156 165 170 173 174 174 173 171 172 174 178 183 188 193 199 204 208 212 215 219 224 226 228 231 231 231 234 236 240 248 264 248 240 235 150 194 219 221 218 216 215
160 161 163 173 173 177 177 178 178 176 177 182 187 193 199 204 207 213 219 213 227 232 234 235 236 238 238 237 238 241 244 247 250 248 241 203 159 214 229 228 222 218 217
163 167 172 175 178 186 179 169 178 179 183 194 198 202 213 217 211 207 220 199 228 238 241 240 239 240 243 233 233 239 242 245 247 253 249 151 181 231 239 237 229 222 219
171 176 179 183 181 188 181 173 187 190 183 204 206 204 215 223 238 249 159 200 230 236 238 238 244 244 243 238 213 219 241 248 257 251 234 161 212 240 245 245 238 227 222
171 174 178 183 190 194 187 187 194 198 192 207 213 217 222 231 234 246 233 208 224 233 239 228 233 244 249 255 263 241 253 263 263 263 243 170 222 246 248 244 241 232 224
177 179 180 183 187 199 206 201 199 206 207 212 205 222 220 229 240 246 250 256 247 248 253 257 256 254 261 259 259 260 258 257 261 261 246 185 233 249 251 245 241 236 228
181 180 179 190 191 197 207 223 212 219 222 216 224 219 232 233 243 248 258 264 266 267 261 266 269 274 270 264 264 259 259 261 266 265 254 198 223 248 254 248 243 238 234
179 179 179 187 191 200 208 219 225 225 229 239 231 222 235 247 254 262 257 259 264 272 281 274 272 274 272 274 271 269 265 263 260 262 266 231 208 229 249 255 250 243 238
171 172 180 187 190 202 216 227 227 232 234 242 234 228 236 244 247 253 260 253 256 256 257 263 266 265 264 265 267 271 266 264 267 263 266 268 244 216 227 248 257 252 243
169 168 180 188 184 189 208 231 234 236 225 225 228 223 236 242 246 254 259 261 267 267 264 262 267 269 267 272 273 272 271 266 265 263 263 261 266 260 216 217 246 256 254
169 169 173 174 186 188 199 210 218 210 225 232 234 234 236 241 243 251 261 277 263 267 269 272 271 276 273 277 276 266 268 264 263 262 267 266 267 270 270 206 219 239 250
158 159 168 167 170 194 196 191 198 208 217 229 228 240 247 245 244 253 249 256 267 267 268 272 273 266 274 280 281 277 267 262 256 258 261 258 256 259 264 273 249 226 229
154 159 163 169 167 194 206 213 207 202 215 221 217 226 254 256 242 242 261 245 265 270 278 278 277 270 270 288 282 277 254 238 240 253 261 270 263 264 264 265 270 278 245
169 174 170 171 172 196 195 213 231 243 255 240 241 190 264 263 250 235 263 261 265 268 266 276 276 283 283 276 289 287 275 238 224 242 253 255 270 272 270 264 266 266 278
180 184 174 164 163 175 184 189 171 181 213 213 207 158 317 278 269 289 268 283 285 276 277 276 278 272 281 272 273 286 291 297 307 224 245 259 272 281 278 279 267 270 269
187 177 164 156 159 163 178 183 189 214 225 267 277 80 223 218 242 242 258 262 269 274 278 273 283 279 274 278 264 260 284 309 292 291 257 255 272 273 279 283 280 273 270
173 166 158 156 165 172 176 175 208 228 141 87 45 75 270 214 231 236 259 269 266 270 276 285 285 280 274 279 281 275 266 261 258 278 289 292 279 277 285 279 276 275 276
156 157 156 166 172 173 175 175 202 178 125 101 69 11 261 249 250 263 269 273 268 275 275 274 273 267 276 278 274 268 265 268 268 270 278 282 285 289 292 288 274 272 272